Location: Beaver Brook Station
(42.3793°N, 71.2203°W)
Time: 19:10:16
(UTC+00:00)

Hubble Space Telescope - Visible Passes

Search period start: 22 January 2021 00:00
Search period end: 01 February 2021 00:00
Orbit: 536 x 539 km, 28.5° (Epoch: 22 January)

Date Brightness Start Highest point End Pass type
(mag) Time Alt. Az. Time Alt. Az. Time Alt. Az.
22 Jan 3.6 00:19:37 10° SSW 00:19:55 10° SSW 00:19:55 10° SSW visible
22 Jan 3.4 22:28:12 10° SSW 22:29:28 11° S 22:30:46 10° SSE visible
23 Jan 3.5 00:09:12 10° SSW 00:09:48 10° S 00:09:49 10° S visible
23 Jan 3.4 22:17:03 10° SSW 22:18:30 12° S 22:19:57 10° SSE visible
